When you browse on this site, cookies collect data to enhance your experience and personalize the content and advertising you see.
Visit our Privacy Policy to learn more. By continuing to use the site, you agree to this use of cookies and data.
  • In Hungary
  • List of Countries
  • For 7 days
  • Water Temperature
  • Weather Map
  • News
  • Weather Widgets
  • user-avatar
    Login

    Hourly Weather Zwettl

    Today, 8 April, Wednesday

    Time Temperature Precipitation Wind Pressure Humidity
    00:00 +6°C° 0 mm 1 mps 724 mmHg 63%
    01:00 +5°C° 0 mm 1 mps 723 mmHg 64%
    02:00 +5°C° 0 mm 1 mps 723 mmHg 66%
    03:00 +4°C° 0 mm 1 mps 723 mmHg 68%
    04:00 +4°C° 0 mm 1 mps 722 mmHg 70%
    05:00 +5°C° 0 mm 1 mps 722 mmHg 67%
    06:00 +5°C° 0 mm 1 mps 723 mmHg 65%
    07:00 +6°C° 0 mm 1 mps 723 mmHg 62%
    08:00 +7°C° 0 mm 2 mps 723 mmHg 54%
    09:00 +10°C° 0 mm 2 mps 722 mmHg 46%
    10:00 +12°C° 0 mm 3 mps 722 mmHg 38%
    11:00 +14°C° 0 mm 3 mps 722 mmHg 34%
    12:00 +16°C° 0 mm 3 mps 722 mmHg 31%
    13:00 +18°C° 0 mm 4 mps 722 mmHg 28%
    14:00 +18°C° 0 mm 4 mps 721 mmHg 29%
    15:00 +17°C° 0 mm 4 mps 721 mmHg 30%
    16:00 +17°C° 0 mm 4 mps 720 mmHg 32%
    17:00 +14°C° 0 mm 3 mps 720 mmHg 40%
    18:00 +11°C° 0 mm 3 mps 720 mmHg 48%
    19:00 +9°C° 0 mm 2 mps 719 mmHg 57%
    20:00 +8°C° 0 mm 2 mps 719 mmHg 58%
    21:00 +8°C° 0 mm 1 mps 719 mmHg 59%
    22:00 +7°C° 0 mm 1 mps 719 mmHg 61%
    23:00 +7°C° 0 mm 1 mps 719 mmHg 60%

    Tomorrow, 9 April, Thursday

    Time Temperature Precipitation Wind Pressure Humidity
    00:00 +7°C° 0 mm 1 mps 719 mmHg 60%
    01:00 +6°C° 0 mm 0 mps 719 mmHg 60%
    02:00 +6°C° 0 mm 1 mps 719 mmHg 60%
    03:00 +6°C° 0 mm 1 mps 718 mmHg 61%
    04:00 +6°C° 0 mm 1 mps 718 mmHg 62%
    05:00 +7°C° 0 mm 1 mps 718 mmHg 60%
    06:00 +8°C° 0 mm 1 mps 719 mmHg 59%
    07:00 +9°C° 0 mm 1 mps 719 mmHg 57%
    08:00 +12°C° 0 mm 1 mps 719 mmHg 52%
    09:00 +14°C° 0 mm 2 mps 719 mmHg 47%
    10:00 +16°C° 0 mm 2 mps 719 mmHg 42%
    11:00 +17°C° 0 mm 2 mps 719 mmHg 41%
    12:00 +18°C° 0 mm 3 mps 719 mmHg 40%
    13:00 +19°C° 0 mm 3 mps 719 mmHg 39%
    14:00 +19°C° 0 mm 3 mps 718 mmHg 41%
    15:00 +18°C° 0 mm 3 mps 718 mmHg 44%
    16:00 +17°C° 0 mm 3 mps 718 mmHg 47%
    17:00 +16°C° 0 mm 2 mps 718 mmHg 53%
    18:00 +14°C° 0 mm 2 mps 718 mmHg 59%
    19:00 +12°C° 0 mm 1 mps 718 mmHg 66%
    20:00 +11°C° 0 mm 1 mps 718 mmHg 69%
    21:00 +11°C° 0 mm 1 mps 719 mmHg 73%
    22:00 +10°C° 0 mm 1 mps 719 mmHg 77%
    23:00 +10°C° 0 mm 1 mps 719 mmHg 80%

    Day after tomorrow, 10 April, Friday

    Time Temperature Precipitation Wind Pressure Humidity
    00:00 +10°C° 0 mm 1 mps 719 mmHg 84%
    01:00 +9°C° 0 mm 1 mps 719 mmHg 87%
    02:00 +9°C° 0 mm 1 mps 719 mmHg 89%
    03:00 +9°C° 0 mm 1 mps 719 mmHg 91%
    04:00 +8°C° 0 mm 1 mps 719 mmHg 92%
    05:00 +9°C° 0 mm 1 mps 720 mmHg 89%
    06:00 +9°C° 0 mm 1 mps 720 mmHg 86%
    07:00 +10°C° 0 mm 1 mps 720 mmHg 84%
    08:00 +11°C° 0 mm 1 mps 720 mmHg 78%
    09:00 +12°C° 0 mm 1 mps 720 mmHg 72%
    10:00 +13°C° 0 mm 1 mps 720 mmHg 67%
    11:00 +14°C° 0 mm 1 mps 720 mmHg 63%
    12:00 +15°C° 0 mm 1 mps 720 mmHg 60%
    13:00 +16°C° 0 mm 1 mps 720 mmHg 57%
    14:00 +16°C° 0 mm 1 mps 719 mmHg 57%
    15:00 +16°C° 0 mm 1 mps 719 mmHg 57%
    16:00 +16°C° 0 mm 1 mps 718 mmHg 57%
    17:00 +14°C° 0 mm 1 mps 718 mmHg 62%
    18:00 +13°C° 0 mm 1 mps 718 mmHg 67%
    19:00 +12°C° 0 mm 1 mps 718 mmHg 73%
    20:00 +11°C° 0 mm 1 mps 719 mmHg 73%
    21:00 +10°C° 0 mm 1 mps 719 mmHg 74%
    22:00 +10°C° 0 mm 1 mps 719 mmHg 74%
    23:00 +9°C° 0 mm 1 mps 719 mmHg 74%

    11 April, Saturday

    Time Temperature Precipitation Wind Pressure Humidity
    00:00 +8°C° 0 mm 1 mps 719 mmHg 75%
    01:00 +7°C° 0 mm 1 mps 719 mmHg 75%
    02:00 +7°C° 0 mm 1 mps 719 mmHg 76%
    03:00 +6°C° 0 mm 1 mps 719 mmHg 76%
    04:00 +5°C° 0 mm 0 mps 719 mmHg 77%
    05:00 +6°C° 0 mm 0 mps 719 mmHg 73%
    06:00 +7°C° 0 mm 0 mps 719 mmHg 69%
    07:00 +8°C° 0 mm 0 mps 719 mmHg 66%
    08:00 +11°C° 0 mm 1 mps 719 mmHg 60%
    09:00 +12°C° 0 mm 1 mps 720 mmHg 55%
    10:00 +14°C° 0 mm 1 mps 720 mmHg 50%
    11:00 +15°C° 0 mm 2 mps 720 mmHg 48%
    12:00 +16°C° 0 mm 2 mps 719 mmHg 46%
    13:00 +17°C° 0 mm 2 mps 719 mmHg 44%
    14:00 +17°C° 0 mm 2 mps 719 mmHg 45%
    15:00 +17°C° 0 mm 2 mps 718 mmHg 46%
    16:00 +16°C° 0 mm 2 mps 718 mmHg 47%
    17:00 +14°C° 0 mm 2 mps 718 mmHg 54%
    18:00 +12°C° 0 mm 2 mps 718 mmHg 62%
    19:00 +9°C° 0 mm 2 mps 717 mmHg 69%
    20:00 +9°C° 0 mm 2 mps 717 mmHg 70%
    21:00 +9°C° 0 mm 1 mps 718 mmHg 71%
    22:00 +8°C° 0 mm 1 mps 718 mmHg 71%
    23:00 +8°C° 0 mm 1 mps 717 mmHg 72%

    12 April, Sunday

    Time Temperature Precipitation Wind Pressure Humidity
    00:00 +8°C° 0 mm 1 mps 717 mmHg 73%
    01:00 +7°C° 0 mm 1 mps 717 mmHg 73%
    02:00 +7°C° 0 mm 1 mps 717 mmHg 74%
    03:00 +7°C° 0 mm 1 mps 716 mmHg 76%
    04:00 +7°C° 0 mm 1 mps 716 mmHg 77%
    05:00 +8°C° 0 mm 1 mps 716 mmHg 74%
    06:00 +9°C° 0 mm 1 mps 716 mmHg 72%
    07:00 +10°C° 0 mm 1 mps 716 mmHg 70%
    08:00 +12°C° 0 mm 1 mps 716 mmHg 65%
    09:00 +14°C° 0 mm 1 mps 716 mmHg 60%
    10:00 +16°C° 0 mm 2 mps 715 mmHg 54%
    11:00 +17°C° 0 mm 2 mps 715 mmHg 52%
    12:00 +18°C° 0 mm 2 mps 715 mmHg 49%
    13:00 +19°C° 0 mm 2 mps 714 mmHg 46%
    14:00 +19°C° 0 mm 3 mps 713 mmHg 48%
    15:00 +19°C° 0 mm 3 mps 713 mmHg 50%
    16:00 +18°C° 0 mm 3 mps 712 mmHg 52%
    17:00 +16°C° 0 mm 2 mps 711 mmHg 61%
    18:00 +15°C° 0 mm 2 mps 711 mmHg 69%
    19:00 +13°C° 0 mm 1 mps 710 mmHg 77%
    20:00 +13°C° 0 mm 1 mps 710 mmHg 78%
    21:00 +12°C° 0 mm 1 mps 710 mmHg 79%
    22:00 +11°C° 0 mm 0 mps 710 mmHg 80%
    23:00 +12°C° 0 mm 1 mps 710 mmHg 81%

    13 April, Monday

    Time Temperature Precipitation Wind Pressure Humidity
    00:00 +11°C° 0 mm 1 mps 710 mmHg 83%
    01:00 +11°C° 0 mm 1 mps 710 mmHg 84%
    02:00 +11°C° 0 mm 1 mps 710 mmHg 85%
    03:00 +10°C° 0 mm 1 mps 710 mmHg 85%
    04:00 +10°C° 0 mm 1 mps 709 mmHg 85%
    05:00 +10°C° 0 mm 2 mps 709 mmHg 83%
    06:00 +12°C° 0 mm 2 mps 710 mmHg 80%
    07:00 +12°C° 0 mm 2 mps 710 mmHg 77%
    08:00 +14°C° 0.1 mm 2 mps 710 mmHg 71%
    09:00 +14°C° 0.1 mm 3 mps 710 mmHg 65%
    10:00 +17°C° 0.1 mm 3 mps 710 mmHg 59%
    11:00 +17°C° 0.5 mm 3 mps 709 mmHg 58%
    12:00 +18°C° 0.5 mm 3 mps 709 mmHg 56%
    13:00 +18°C° 0.5 mm 3 mps 709 mmHg 55%
    14:00 +18°C° 0.6 mm 3 mps 708 mmHg 57%
    15:00 +17°C° 0.6 mm 3 mps 708 mmHg 59%
    16:00 +17°C° 0.6 mm 3 mps 707 mmHg 62%
    17:00 +14°C° 0.5 mm 3 mps 707 mmHg 68%
    18:00 +13°C° 0.5 mm 4 mps 707 mmHg 73%
    19:00 +12°C° 0.5 mm 4 mps 706 mmHg 79%
    20:00 +10°C° 0.1 mm 5 mps 707 mmHg 81%
    21:00 +10°C° 0.1 mm 5 mps 707 mmHg 82%
    22:00 +9°C° 0.1 mm 6 mps 707 mmHg 84%
    23:00 +5°C° 1.3 mm 6 mps 707 mmHg 87%
    Show more